Terminal Aerodrome Forecast
Issued by NWS

Home | Current Version | Previous Version | Text Only | Print | Product List | Glossary On
Versions: 1 2 3 4 5 6 7 8 9 10 11 12 13 14 15 16 17 18 19 20 21 22 23 24 25 26 27 28 29 30 31 32 33 34 35 36 37 38 39 40
000
FTUS45 KPSR 030528 AAA
TAFIWA
TAF AMD
KIWA 030528Z 0305/0406 12004KT P6SM VCTS SCT120CB BKN250
     FM030900 12004KT P6SM SCT120 BKN250
     FM031800 27009KT P6SM SCT120 BKN250
      AMD LTD TO CLD VIS AND WIND TIL 031300=

USA.gov is the U.S. government's official web portal to all federal, state and local government web resources and services.